Buffalo, SD

4:02 PM MDT on April 23, 2017 (GMT -0600)
Buffalo

Weather History for K2WX - December, 2012

Change the Weather History Date:

Sunday, December 9, 2012

  Actual Average Record
Temperature  
Mean Temperature 4 °F 22 °F  
Max Temperature 12 °F 32 °F 63 °F (2015)
Min Temperature -5 °F 11 °F -15 °F (2013)
Degree Days  
Heating Degree Days 61 43  
Month to date heating degree days 286 379  
Since 1 July heating degree days 1986 2277  
Cooling Degree Days 0 0  
Month to date cooling degree days 0 0  
Year to date cooling degree days 853 513  
Moisture  
Dew Point -3 °F    
Average Humidity 74    
Maximum Humidity 87    
Minimum Humidity 61    
Precipitation  
Precipitation 0.00 in 0.01 in 0.07 in (2013)
Month to date precipitation 0.09 0.06  
Year to date precipitation 8.37 14.29  
Sea Level Pressure  
Sea Level Pressure 30.31 in    
Wind  
Wind Speed 12 mph (West)    
Max Wind Speed 28 mph    
Max Gust Speed 32 mph    
T = Trace of Precipitation, MM = Missing Value Source: NWS Daily Summary

Daily Weather History Graph

Daily Weather History Graph

Search for Another Location

Airport or City:

Trip Planner

Search our weather history database for the weather conditions in past years. The results will help you decide how hot, cold, wet, or windy it might be!

Date:

Astronomy

Dec. 09, 2012 Rise Set
Actual Time 7:23 AM MST 4:10 PM MST
Civil Twilight 6:48 AM MST 4:44 PM MST
Nautical Twilight 6:11 AM MST 5:21 PM MST
Astronomical Twilight 5:35 AM MST 5:57 PM MST
Moon 2:49 AM MST (12/9) 1:26 PM MST (12/9)
Length of Visible Light 9h 55m
Length of Day
8h 47m
Waning Crescent, 18% of the Moon is Illuminated
Dec 9
Waning Crescent
Dec 13
New
Dec 19
First Quarter
Dec 28
Full
Jan 4
Last Quarter

Hourly Weather History & Observations

Time (MST) Temp. Windchill Dew Point Humidity Pressure Visibility Wind Dir Wind Speed Gust Speed Precip Events Conditions
12:56 AM 5.0 °F -15.2 °F -0.0 °F 80% 30.20 in - NNW 19.6 mph 29.9 mph N/A   Unknown
1:56 AM 3.9 °F -17.6 °F -0.9 °F 80% 30.23 in - NNW 21.9 mph 29.9 mph N/A   Unknown
2:56 AM 1.9 °F -19.8 °F -2.0 °F 83% 30.27 in - NW 20.7 mph - N/A   Unknown
3:56 AM -0.0 °F -22.9 °F -4.0 °F 83% 30.29 in - NW 21.9 mph 27.6 mph N/A   Unknown
4:56 AM -2.0 °F -23.9 °F -6.0 °F 83% 30.35 in - NW 18.4 mph - N/A   Unknown
5:56 AM -4.0 °F -25.2 °F -8.0 °F 83% 30.39 in - NW 16.1 mph - N/A   Unknown
6:56 AM -4.0 °F -25.8 °F -8.0 °F 83% 30.43 in - NNW 17.3 mph - N/A   Unknown
7:56 AM -4.0 °F -23.0 °F -8.0 °F 83% 30.46 in - NW 12.7 mph - N/A   Unknown
8:56 AM -0.0 °F -18.0 °F -5.1 °F 79% 30.46 in - NW 12.7 mph - N/A   Unknown
9:56 AM 3.9 °F -10.4 °F -2.0 °F 76% 30.48 in - NW 9.2 mph - N/A   Unknown
10:56 AM 8.1 °F -5.3 °F -0.0 °F 70% 30.46 in - WNW 9.2 mph - N/A   Unknown
11:56 AM 10.9 °F 0.2 °F 1.9 °F 67% 30.43 in - West 6.9 mph - N/A   Unknown
12:56 PM 12.0 °F 0.5 °F 1.9 °F 64% 30.39 in - West 8.1 mph - N/A   Unknown
1:56 PM 12.0 °F 0.5 °F 1.9 °F 64% 30.36 in - SW 8.1 mph - N/A   Unknown
2:56 PM 10.0 °F -3.7 °F 1.0 °F 67% 30.36 in - WSW 10.4 mph - N/A   Unknown
3:56 PM 7.0 °F -6.6 °F -2.0 °F 67% 30.35 in - SW 9.2 mph - N/A   Unknown
4:56 PM 5.0 °F -6.9 °F -2.9 °F 70% 30.32 in - SSW 6.9 mph - N/A   Unknown
5:56 PM 3.9 °F -8.2 °F -4.0 °F 70% 30.29 in - SSW 6.9 mph - N/A   Unknown
6:56 PM 3.0 °F -8.0 °F -5.1 °F 69% 30.27 in - South 5.8 mph - N/A   Unknown
7:56 PM -0.9 °F -15.3 °F -6.0 °F 79% 30.23 in - SE 8.1 mph - N/A   Unknown
8:56 PM -0.0 °F -15.3 °F -5.1 °F 79% 30.17 in - South 9.2 mph - N/A   Unknown
9:56 PM 1.9 °F -15.5 °F -4.0 °F 76% 30.12 in - South 12.7 mph - N/A   Unknown
10:56 PM -0.0 °F -13.0 °F -6.0 °F 76% 30.08 in - South 6.9 mph - N/A   Unknown
11:56 PM -2.0 °F -13.9 °F -7.1 °F 79% 30.04 in - SSE 5.8 mph - N/A   Unknown